| time (UTC) | temp C | wind direction | speed KPH | gust KPH | rain 1hr cm | rain 24hr cm | rain mn cm | humidity % | barometer mb |
| 20260508094854 | -17 | 295 | 3.2 | 8.0 | 0.00 | 0.00 | 0.00 | 1002.0 | |
| 20260508094351 | -17 | 286 | 4.8 | 4.8 | 0.00 | 0.00 | 0.00 | 1002.0 | |
| 20260508093848 | -17 | 290 | 0.0 | 3.2 | 0.00 | 0.00 | 0.00 | 1001.8 | |
| 20260508093346 | -17 | 270 | 0.0 | 1.6 | 0.00 | 0.00 | 0.00 | 1001.7 | |
| 20260508092843 | -17 | 23 | 0.0 | 3.2 | 0.00 | 0.00 | 0.00 | 1001.7 | |
| 20260508092341 | -17 | 225 | 3.2 | 3.2 | 0.00 | 0.00 | 0.00 | 1001.6 | |
| 20260508091839 | -17 | 90 | 0.0 | 1.6 | 0.00 | 0.00 | 0.00 | 1001.7 | |
| 20260508091335 | -17 | 180 | 0.0 | 1.6 | 0.00 | 0.00 | 0.00 | 1001.5 | |
| 20260508090833 | -17 | 80 | 3.2 | 4.8 | 0.00 | 0.00 | 0.00 | 1001.4 | |
| 20260508090331 | -17 | 225 | 0.0 | 3.2 | 0.00 | 0.00 | 0.00 | 1001.5 | |
| 20260508085826 | -17 | 0 | 0.0 | 1.6 | 0.00 | 0.00 | 0.00 | 1001.5 | |
| 20260508085324 | -17 | 229 | 0.0 | 1.6 | 0.00 | 0.00 | 0.00 | 1001.8 | |
| 20260508084820 | -17 | 237 | 1.6 | 6.4 | 0.00 | 0.00 | 0.00 | 1001.7 | |
| 20260508084317 | -17 | 238 | 3.2 | 4.8 | 0.00 | 0.00 | 0.00 | 1001.5 | |
| 20260508083814 | -17 | 307 | 3.2 | 9.7 | 0.00 | 0.00 | 0.00 | 1001.4 | |
| 20260508083312 | -17 | 279 | 3.2 | 4.8 | 0.00 | 0.00 | 0.00 | 1001.4 | |
| 20260508082811 | -17 | 325 | 1.6 | 3.2 | 0.00 | 0.00 | 0.00 | 1001.2 | |
| 20260508082309 | -17 | 257 | 1.6 | 4.8 | 0.00 | 0.00 | 0.00 | 1001.4 | |
| 20260508081806 | -17 | 282 | 1.6 | 3.2 | 0.00 | 0.00 | 0.00 | 1001.0 | |
| 20260508081303 | -17 | 261 | 3.2 | 3.2 | 0.00 | 0.00 | 0.00 | 1001.2 | |
| 20260508080800 | -17 | 340 | 0.0 | 3.2 | 0.00 | 0.00 | 0.00 | 1001.1 | |
| 20260508080258 | -17 | 255 | 3.2 | 4.8 | 0.00 | 0.00 | 0.00 | 1000.9 | |
| 20260508075754 | -17 | 270 | 1.6 | 3.2 | 0.00 | 0.00 | 0.00 | 1001.2 | |
| 20260508075251 | -17 | 246 | 1.6 | 3.2 | 0.00 | 0.00 | 0.00 | 1000.9 | |
| 20260508074749 | -17 | 162 | 0.0 | 0.0 | 0.00 | 0.00 | 0.00 | 1001.0 | |
| 20260508074246 | -17 | 158 | 0.0 | 3.2 | 0.00 | 0.00 | 0.00 | 1001.0 | |
| 20260508073743 | -17 | 180 | 0.0 | 3.2 | 0.00 | 0.00 | 0.00 | 1001.1 | |
| 20260508073241 | -17 | 75 | 1.6 | 1.6 | 0.00 | 0.00 | 0.00 | 1000.9 | |
| 20260508072737 | -17 | 132 | 3.2 | 3.2 | 0.00 | 0.00 | 0.00 | 1001.2 | |
| 20260508072234 | -17 | 203 | 0.0 | 3.2 | 0.00 | 0.00 | 0.00 | 1001.0 | |
| 20260508071731 | -17 | 201 | 4.8 | 6.4 | 0.00 | 0.00 | 0.00 | 1000.8 | |
| 20260508071229 | -17 | 203 | 4.8 | 4.8 | 0.00 | 0.00 | 0.00 | 1000.8 | |
| 20260508070727 | -17 | 214 | 3.2 | 4.8 | 0.00 | 0.00 | 0.00 | 1001.0 | |
| 20260508070225 | -17 | 236 | 0.0 | 0.0 | 0.00 | 0.00 | 0.00 | 1000.9 | |
| 20260508065722 | -17 | 236 | 0.0 | 4.8 | 0.00 | 0.00 | 0.00 | 1000.7 | |
| 20260508065220 | -17 | 294 | 1.6 | 3.2 | 0.00 | 0.00 | 0.00 | 1000.9 | |
| 20260508064717 | -17 | 270 | 1.6 | 4.8 | 0.00 | 0.00 | 0.00 | 1000.7 | |
| 20260508064216 | -17 | 20 | 1.6 | 1.6 | 0.00 | 0.00 | 0.00 | 1001.0 | |
| 20260508063713 | -17 | 270 | 3.2 | 3.2 | 0.00 | 0.00 | 0.00 | 1000.8 | |
| 20260508063210 | -17 | 339 | 3.2 | 3.2 | 0.00 | 0.00 | 0.00 | 1001.0 | |
| 20260508062707 | -17 | 0 | 1.6 | 3.2 | 0.00 | 0.00 | 0.00 | 1000.5 | |
| 20260508062204 | -17 | 346 | 0.0 | 1.6 | 0.00 | 0.00 | 0.00 | 1000.7 | |
| 20260508061702 | -17 | 194 | 0.0 | 1.6 | 0.00 | 0.00 | 0.00 | 1000.6 | |
| 20260508061159 | -17 | 157 | 4.8 | 6.4 | 0.00 | 0.00 | 0.00 | 1000.6 | |
| 20260508060655 | -17 | 140 | 4.8 | 4.8 | 0.00 | 0.00 | 0.00 | 1000.6 | |
| 20260508060153 | -17 | 152 | 3.2 | 4.8 | 0.00 | 0.00 | 0.00 | 1000.6 | |
| 20260508055648 | -17 | 147 | 3.2 | 4.8 | 0.00 | 0.00 | 0.00 | 1000.5 | |
| 20260508055145 | -17 | 162 | 1.6 | 1.6 | 0.00 | 0.00 | 0.00 | 1000.3 | |
| 20260508054642 | -17 | 275 | 3.2 | 4.8 | 0.00 | 0.00 | 0.00 | 1000.4 | |
| 20260508054139 | -17 | 259 | 3.2 | 3.2 | 0.00 | 0.00 | 0.00 | 1000.7 | |
| 20260508053636 | -17 | 26 | 0.0 | 1.6 | 0.00 | 0.00 | 0.00 | 1000.5 | |
| 20260508053134 | -17 | 161 | 3.2 | 3.2 | 0.00 | 0.00 | 0.00 | 1000.5 | |
| 20260508052631 | -17 | 160 | 0.0 | 1.6 | 0.00 | 0.00 | 0.00 | 1000.5 | |
| 20260508052128 | -17 | 249 | 0.0 | 0.0 | 0.00 | 0.00 | 0.00 | 1000.4 | |
| 20260508051624 | -17 | 278 | 0.0 | 3.2 | 0.00 | 0.00 | 0.00 | 1000.4 | |
| 20260508051120 | -17 | 255 | 0.0 | 6.4 | 0.00 | 0.00 | 0.00 | 1000.4 | |
| 20260508050616 | -17 | 270 | 0.0 | 4.8 | 0.00 | 0.00 | 0.00 | 1000.5 | |
| 20260508050114 | -17 | 109 | 1.6 | 4.8 | 0.00 | 0.00 | 0.00 | 1000.3 | |
| 20260508045609 | -17 | 81 | 3.2 | 3.2 | 0.00 | 0.00 | 0.00 | 1000.4 | |
| 20260508045108 | -17 | 185 | 0.0 | 3.2 | 0.00 | 0.00 | 0.00 | 1000.5 | |
| 20260508044604 | -17 | 206 | 0.0 | 3.2 | 0.00 | 0.00 | 0.00 | 1000.3 | |
| 20260508044100 | -17 | 230 | 3.2 | 4.8 | 0.00 | 0.00 | 0.00 | 1000.2 | |
| 20260508043557 | -17 | 200 | 0.0 | 4.8 | 0.00 | 0.00 | 0.00 | 1000.4 | |
| 20260508043055 | -17 | 331 | 0.0 | 1.6 | 0.00 | 0.00 | 0.00 | 1000.3 | |
| 20260508042551 | -17 | 198 | 0.0 | 0.0 | 0.00 | 0.00 | 0.00 | 1000.2 | |
| 20260508042049 | -17 | 159 | 3.2 | 4.8 | 0.00 | 0.00 | 0.00 | 1000.1 | |
| 20260508041545 | -17 | 340 | 1.6 | 4.8 | 0.00 | 0.00 | 0.00 | 1000.3 | |
| 20260508041041 | -17 | 270 | 0.0 | 3.2 | 0.00 | 0.00 | 0.00 | 1000.2 | |
| 20260508040538 | -17 | 168 | 3.2 | 3.2 | 0.00 | 0.00 | 0.00 | 999.9 | |
| 20260508040036 | -17 | 245 | 4.8 | 8.0 | 0.00 | 0.00 | 0.00 | 999.9 | |
| 20260508035532 | -17 | 280 | 4.8 | 8.0 | 0.00 | 0.00 | 0.00 | 1000.1 | |
| 20260508035030 | -17 | 255 | 6.4 | 9.7 | 0.00 | 0.00 | 0.00 | 999.9 | |
| 20260508034527 | -17 | 281 | 3.2 | 8.0 | 0.00 | 0.00 | 0.00 | 999.9 | |
| 20260508034024 | -17 | 266 | 6.4 | 9.7 | 0.00 | 0.00 | 0.00 | 999.7 | |
| 20260508033521 | -17 | 285 | 8.0 | 11.3 | 0.00 | 0.00 | 0.00 | 999.7 | |
| 20260508033019 | -17 | 266 | 3.2 | 8.0 | 0.00 | 0.00 | 0.00 | 999.7 | |
| 20260508032516 | -17 | 256 | 8.0 | 8.0 | 0.00 | 0.00 | 0.00 | 999.7 | |
| 20260508032014 | -17 | 254 | 6.4 | 8.0 | 0.00 | 0.00 | 0.00 | 999.8 | |
| 20260508031510 | -17 | 278 | 1.6 | 6.4 | 0.00 | 0.00 | 0.00 | 999.5 | |
| 20260508031005 | -17 | 287 | 0.0 | 6.4 | 0.00 | 0.00 | 0.00 | 999.1 | |
| 20260508030503 | -17 | 294 | 4.8 | 4.8 | 0.00 | 0.00 | 0.00 | 999.4 | |
| 20260508030000 | -17 | 270 | 3.2 | 8.0 | 0.00 | 0.00 | 0.00 | 999.3 |